www.pogodaiklimat.ru

Погода и климат >> Архив погоды >> Гвинея >> Конакри


ПОГОДА в Конакри

  • Прогноз погоды в Конакри
  • Монитор погоды в Конакри

АРХИВ ПОГОДЫ в Конакри

Время (UTC), дата Ветер
(напр.,м/с)
 
Видим.   Явления Облачность Т
(С)
Тd
(С)
f
(%)
Тe
(С)
Тes
(С)
Комфортность P
(гПа)
Po
(гПа)
Тmin
(С)
Tmax
(С)
R
(мм)
R24
(мм)
S
(см)
12 10.08 Ю 3 10 км 9/8 450 м
[Sc Ac trans]
+28.6 +25.0 81 +41 +44 опасность
перегрева
1017.0 914.4
15 10.08 Ю 1 8000 м слаб. дождь 9/8 400 м
[Sc Ac As]
+27.5 +26.1 92 +41 +44 опасность
перегрева
1014.0 911.4
18 10.08 Ю 3 10 км 9/8 450 м
[Cb calv Ac As]
+28.0 +23.7 77 +38 +38 очень
душно
1013.6 911.0 +29.0 0.0
21 10.08 штиль 0 10 км зарница 9/6 450 м
[Cb calv Ac As]
+26.5 +24.4 88 +37 +37 очень
душно
1015.6 913.0
06 11.08 штиль 0 6000 м слаб. ливневой дождь, в посл. час гроза 9/8 300 м
[Cb cap Ac As]
+24.0 +24.0 100 +33 +33 очень
душно
1014.2 911.6 +23.5 154
09 11.08 ЮЗ 5 2000 м ливневой дождь, в посл. час гроза 10/8 240 м
[Cb cap Ac As]
+24.0 +24.0 100 +33 +33 очень
душно
1016.4 913.8
12 11.08 ЮЗ 2 1500 м ливневой дождь, в посл. час гроза 10/8 240 м
[Cb cap Ac As]
+24.0 +24.0 100 +33 +34 очень
душно
1016.0 913.4
15 11.08 ЮЗ 2 3000 м ливневой дождь, в посл. час гроза 10/6 300 м
[Cb cap Ac As]
+24.0 +24.0 100 +33 +35 очень
душно
1015.0 912.4
18 11.08 З 6 2000 м дождь {гроза} 10/6 300 м
[Sc Ac As]
+24.0 +24.0 100 +33 +33 очень
душно
1014.0 911.4 +25.0 133
21 11.08 штиль 0 5000 м дождь 10/8 300 м
[Sc Ac As]
+24.0 +22.5 91 +31 +31 очень
душно
1016.2 913.6
03 12.08 штиль 0 8000 м слаб. дождь 9/8 400 м
[Sc Ac As]
+25.0 +25.0 100 +36 +36 очень
душно
1014.0 911.4
06 12.08 ЮЗ 4 8000 м слаб. дождь 9/8 400 м
[Sc Ac As]
+25.0 +24.3 96 +35 +35 очень
душно
1014.0 911.4 +23.0 147
09 12.08 ЮЗ 3 8000 м слаб. дождь 9/8 400 м
[Sc Ac As]
+26.0 +24.6 92 +37 +37 очень
душно
1016.3 913.7
12 12.08 ЮЗ 4 10 км {дождь} 9/6 450 м
[Sc Ac As]
+28.0 +24.0 79 +39 +41 очень
душно
1016.1 913.5
15 12.08 З 3 8000 м слаб. дождь 9/6 360 м
[Sc Ac As]
+27.2 +23.6 81 +37 +40 очень
душно
1014.2 911.6
18 12.08 З 3 10 км {дождь} 9/8 450 м
[Sc Ac trans]
+27.2 +23.4 80 +37 +37 очень
душно
1013.6 911.0 +28.5 2
21 12.08 З 2 8000 м слаб. дождь 9/6 400 м
[Sc Ac As]
+25.4 +24.5 95 +36 +36 очень
душно
1015.0 912.4
00 13.08 СЗ 1 8000 м слаб. дождь 8/6 400 м
[Sc Ac As]
+24.8 +23.9 95 +34 +34 очень
душно
1016.0 913.4
06 13.08 СВ 1 8000 м слаб. дождь 9/6 400 м
[Sc Ac As]
+24.5 +24.5 100 +34 +34 очень
душно
1014.1 911.5 +23.9 6
09 13.08 ЮЗ 2 6000 м слаб. дождь 9/8 400 м
[Sc Ac As]
+25.0 +24.7 98 +35 +36 очень
душно
1015.3 912.7
12 13.08 СЗ 5 10 км {дождь} 9/9 450 м
[Sc Ac As]
+27.6 +24.6 84 +39 +40 очень
душно
1015.2 912.6
15 13.08 З 6 25 км 8/6 450 м
[Sc Ac trans]
+29.0 +24.8 78 +41 +43 опасность
перегрева
1012.8 910.2
18 13.08 З 6 10 км 9/8 450 м
[Sc Ac As]
+27.8 +24.5 82 +39 +39 очень
душно
1011.7 909.1 +30.0 3
21 13.08 З 5 10 км 8/6 400 м
[Sc Ac As]
+26.6 +24.3 87 +37 +37 очень
душно
1012.6 910.0
00 14.08 З 4 10 км 9/6 400 м
[Sc Ac As]
+26.7 +24.7 89 +38 +38 очень
душно
1014.0 911.4
03 14.08 З 7 6000 м слаб. дождь 9/8 400 м
[Sc Ac As]
+26.0 +24.7 93 +37 +37 очень
душно
1012.5 909.9
06 14.08 З 4 6000 м слаб. дождь 10/8 400 м
[Sc Ac As]
+25.2 +24.9 98 +36 +36 очень
душно
1012.6 910.0 +24.0 6
09 14.08 штиль 0 3000 м слаб. дождь 10/8 330 м
[Sc Ac As]
+26.0 +25.3 96 +38 +38 очень
душно
1014.2 911.6
12 14.08 З 4 4000 м слаб. дождь 10/8 400 м
[Sc Ac As]
+27.0 +25.6 92 +40 +41 очень
душно
1014.2 911.7
15 14.08 З 7 10 км 8/8 450 м
[Sc Ac trans]
+29.0 +25.4 81 +43 +43 опасность
перегрева
1012.0 909.4
18 14.08 З 3 10 км 8/8 450 м
[Sc Ac As]
+27.0 +25.5 92 +40 +40 очень
душно
1011.0 908.4 +29.0 45
06 15.08 штиль 0 8000 м слаб. ливневой дождь, в посл. час гроза 9/8 300 м
[Cb cap Ac As]
+25.8 +25.8 100 +38 +38 очень
душно
1012.3 909.7 +25.3 49
09 15.08 штиль 0 6000 м слаб. ливневой дождь, в посл. час гроза 10/8 300 м
[Cb cap Ac As]
+25.0 +25.0 100 +36 +36 очень
душно
1014.0 911.4
12 15.08 ЮВ 6 8000 м слаб. дождь 9/8 300 м
[Cb calv Ac As]
+27.0 +25.6 92 +40 +41 очень
душно
1015.0 912.4
15 15.08 Ю 6 10 км в посл. час дождь {гроза} 8/6 400 м
[Cb calv Ac As]
+27.0 +25.2 90 +39 +41 очень
душно
1013.0 910.4
18 15.08 З 6 10 км {дождь} 6/6 400 м
[Sc Ac trans]
+26.5 +23.6 84 +36 +36 очень
душно
1013.0 910.4 +27.5 12
21 15.08 штиль 0 10 км 8/8 400 м
[Sc Ac As]
+25.0 +23.5 91 +34 +34 очень
душно
1014.4 911.8
00 16.08 штиль 0 10 км в посл. час дождь 6/6 450 м
[Sc Ac trans]
+25.0 +25.0 100 +36 +36 очень
душно
1014.9 912.3
06 16.08 ЮЗ 3 3000 м слаб. дождь 10/8 330 м
[Sc Ac As]
+25.0 +25.0 100 +36 +36 очень
душно
1013.0 910.4 +23.5 15
09 16.08 ЮЗ 3 3000 м слаб. дождь 10/8 300 м
[Sc Ac As]
+25.0 +24.7 98 +35 +35 очень
душно
1014.7 912.1

 

Местоположение метеостанции Конакри (Гвинея): широта 9.57 долгота -13.61 высота над уровнем моря 26 м.

В архиве по умолчанию представлена погода в Конакри за последнюю неделю. Архивные данные за месяц целиком и за предыдущие месяцы, начиная с января 2011 года, Вы можете получить, выбрав интересующий диапазон дат из раскрывающегося списка и нажав кнопку "Ввод!".


*Определитесь, кто Вы:
робот инопланетянин человек

Внимание! Время в таблицах - всемирное. Для получения местного времени необходимо прибавить поправку, которая равна 0 ч.

Смотрите также архив погоды в соседних городах и на ближайших метеорологических станциях:

Погода в Киндиа (Гвинея) (98 км)
Погода в Боламе (Гвинея-Биссау) (303 км)
Погода в Бафате (Гвинея-Биссау) (312 км)
Погода в Кундаре (Гвинея) (334 км)
Погода в Биссау (Гвинея-Биссау) (342 км)
Погода в Кедугу (Сенегал) (367 км)
Погода в Колде (Сенегал) (397 км)
Погода в Бассе (Гамбия) (411 км)
Погода в Зигиншоре (Сенегал) (440 км)
Погода в Кеньебе (Мали) (448 км)

Пояснения к столбцам:

Ветер - указаны скорость ветра в м/с - средняя за 10 мин, порывы в срок и между сроками (в фигурных скобках) и направление, откуда дует ветер: С - северный, СВ - северо-восточный, В - восточный, ЮВ - юго-восточный, Ю - южный, ЮЗ - юго-западный, З - западный, СЗ - северо-западный.
Видимость - горизонтальная дальность видимости в метрах или километрах. При видимости от 1 до 10 км при отсутствии осадков обычно наблюдается дымка, при ухудшении видимости до 1 км и менее - туман. В сухую погоду видимость может ухудшаться дымом, пылью или мглою.
Явления - указаны атмосферные явления, наблюдавшиеся в срок или в последний час перед сроком; фигурными скобками обозначены явления, наблюдавшиеся между сроками (за 1-3 часа до срока); квадратными скобками обозначены град или гололедные отложения с указанием их диаметра в мм.
Облачность - указаны через наклонную черту общая и нижняя облачность в баллах и высота нижней границы облаков в метрах; квадратными скобками обозначены формы облаков: Ci - перистые, Cs - перисто-слоистые, Cc - перисто-кучевые, Ac - высококучевые, As - высокослоистые, Sc - слоисто-кучевые, Ns - слоисто-дождевые, Cu - кучевые, Cb - кучево-дождевые. Подробнее классификацию облаков см. в Атласе облаков (PDF).
T - Температура воздуха - температура, измеренная на высоте 2 м над землей.
Td - Температура точки росы - температура, при понижении до которой содержащийся в воздухе водяной пар достигнет насыщения.
f - Относительная влажность воздуха - влажноcть воздуха, измеренная на высоте 2 м над землей.
Te - Эффективная температура - температура, которую ощущает одетый по сезону человек в тени. Характеристика душности погоды. При расчете учитывается влияние влажности воздуха и скорости ветра на теплоощущения человека.
Tes - Эффективная температура на солнце - температура, которую ощущает человек, с поправкой на солнечный нагрев. Характеристика знойности погоды. Зависит от высоты солнца над горизонтом, облачности и скорости ветра. Ночью, в пасмурную погоду, а также при ветре 12 м/с и более поправка равна нулю.
P - Атмосферное давление - приведенное к уровню моря атмосферное давление.
Po - Атмосферное давление - измеренное на уровне метеостанции атмосферное давление.
Tmin - Минимальная температура - минимум температуры воздуха на высоте 2 м над землей.
Tmax - Максимальная температура - максимум температуры воздуха на высоте 2 м над землей.
R - Количество осадков - Количество выпавших осадков за период времени, мм. При наведении курсора мыши на число - период времени, за который выпало указанное количество осадков.
R24 - Количество осадков - Количество выпавших осадков за 24 часа, мм.
S - Снежный покров - Высота снежного покрова, см. При наведении курсора мыши на число - состояние снежного покрова и степень покрытия местности в баллах.